| time (UTC) | temp C | wind direction | speed KPH | gust KPH | rain 1hr cm | rain 24hr cm | rain mn cm | humidity % | barometer mb |
| 20260505041540 | 12 | 63 | 0.0 | 3.2 | 0.00 | 0.00 | 0.00 | 63 | 1011.4 |
| 20260505040031 | 12 | 62 | 0.0 | 3.2 | 0.00 | 0.00 | 0.00 | 61 | 1011.4 |
| 20260505034524 | 12 | 63 | 0.0 | 1.6 | 0.00 | 0.00 | 0.00 | 63 | 1011.3 |
| 20260505033100 | 12 | 61 | 0.0 | 3.2 | 0.00 | 0.00 | 0.00 | 64 | 1011.4 |
| 20260505031530 | 12 | 61 | 1.6 | 4.8 | 0.00 | 0.00 | 0.00 | 64 | 1011.7 |
| 20260505030030 | 12 | 62 | 3.2 | 6.4 | 0.00 | 0.00 | 0.00 | 64 | 1011.8 |
| 20260505024542 | 12 | 331 | 1.6 | 12.9 | 0.00 | 0.00 | 0.00 | 63 | 1012.0 |
| 20260505023044 | 11 | 5 | 11.3 | 20.9 | 0.00 | 0.00 | 0.00 | 63 | 1012.0 |
| 20260505021529 | 12 | 348 | 14.5 | 19.3 | 0.00 | 0.00 | 0.00 | 62 | 1012.3 |
| 20260505020048 | 11 | 11 | 3.2 | 6.4 | 0.00 | 0.00 | 0.00 | 63 | 1012.5 |
| 20260505014534 | 11 | 5 | 1.6 | 4.8 | 0.00 | 0.00 | 0.00 | 63 | 1012.4 |
| 20260505013026 | 12 | 239 | 0.0 | 8.0 | 0.00 | 0.00 | 0.00 | 62 | 1012.6 |
| 20260505011537 | 12 | 349 | 9.7 | 17.7 | 0.00 | 0.00 | 0.00 | 60 | 1012.8 |
| 20260505010040 | 12 | 355 | 6.4 | 14.5 | 0.00 | 0.00 | 0.00 | 60 | 1013.2 |
| 20260505004538 | 12 | 5 | 6.4 | 14.5 | 0.00 | 0.00 | 0.00 | 61 | 1013.4 |
| 20260505003041 | 12 | 12 | 4.8 | 8.0 | 0.00 | 0.00 | 0.00 | 60 | 1013.6 |
| 20260505001532 | 13 | 339 | 4.8 | 8.0 | 0.00 | 0.00 | 0.00 | 57 | 1013.9 |
| 20260505000025 | 12 | 326 | 4.8 | 17.7 | 0.00 | 0.00 | 0.00 | 58 | 1014.0 |
| 20260504234603 | 13 | 360 | 11.3 | 17.7 | 0.00 | 0.00 | 0.00 | 58 | 1014.1 |
| 20260504233027 | 13 | 360 | 12.9 | 20.9 | 0.00 | 0.00 | 0.00 | 56 | 1014.3 |
| 20260504231551 | 13 | 17 | 11.3 | 16.1 | 0.00 | 0.00 | 0.00 | 57 | 1014.5 |
| 20260504230040 | 13 | 360 | 3.2 | 6.4 | 0.00 | 0.00 | 0.00 | 58 | 1014.7 |
| 20260504224532 | 13 | 317 | 4.8 | 12.9 | 0.00 | 0.00 | 0.00 | 56 | 1014.8 |
| 20260504223025 | 13 | 17 | 9.7 | 16.1 | 0.00 | 0.00 | 0.00 | 57 | 1014.9 |
| 20260504221539 | 13 | 13 | 8.0 | 12.9 | 0.00 | 0.00 | 0.00 | 58 | 1015.1 |
| 20260504220030 | 13 | 323 | 1.6 | 6.4 | 0.00 | 0.00 | 0.00 | 56 | 1015.2 |
| 20260504214533 | 13 | 311 | 4.8 | 9.7 | 0.00 | 0.00 | 0.00 | 55 | 1015.3 |
| 20260504213038 | 13 | 355 | 6.4 | 14.5 | 0.00 | 0.00 | 0.00 | 55 | 1015.3 |
| 20260504211531 | 13 | 355 | 6.4 | 16.1 | 0.00 | 0.00 | 0.00 | 55 | 1015.5 |
| 20260504210029 | 13 | 339 | 4.8 | 9.7 | 0.00 | 0.00 | 0.00 | 55 | 1015.6 |
| 20260504204619 | 13 | 18 | 6.4 | 9.7 | 0.00 | 0.00 | 0.00 | 58 | 1015.7 |
| 20260504203034 | 13 | 355 | 4.8 | 9.7 | 0.00 | 0.00 | 0.00 | 58 | 1015.7 |
| 20260504201525 | 13 | 355 | 4.8 | 8.0 | 0.00 | 0.00 | 0.00 | 56 | 1015.7 |
| 20260504200040 | 14 | 351 | 1.6 | 3.2 | 0.00 | 0.00 | 0.00 | 55 | 1015.6 |
| 20260504194543 | 14 | 360 | 3.2 | 6.4 | 0.00 | 0.00 | 0.00 | 55 | 1015.3 |
| 20260504193025 | 14 | 360 | 3.2 | 6.4 | 0.00 | 0.00 | 0.00 | 54 | 1015.3 |
| 20260504191538 | 15 | 9 | 1.6 | 4.8 | 0.00 | 0.00 | 0.00 | 54 | 1015.2 |
| 20260504190037 | 15 | 9 | 1.6 | 6.4 | 0.00 | 0.00 | 0.00 | 52 | 1015.1 |
| 20260504184527 | 15 | 9 | 1.6 | 6.4 | 0.00 | 0.00 | 0.00 | 51 | 1015.0 |
| 20260504183048 | 16 | 10 | 3.2 | 6.4 | 0.00 | 0.00 | 0.00 | 50 | 1015.0 |
| 20260504181534 | 16 | 31 | 3.2 | 6.4 | 0.00 | 0.00 | 0.00 | 49 | 1015.0 |
| 20260504180028 | 17 | 41 | 4.8 | 6.4 | 0.00 | 0.00 | 0.00 | 47 | 1014.9 |
| 20260504174539 | 17 | 15 | 4.8 | 6.4 | 0.00 | 0.00 | 0.00 | 49 | 1014.9 |
| 20260504173031 | 17 | 249 | 0.0 | 1.6 | 0.00 | 0.00 | 0.00 | 45 | 1015.0 |
| 20260504171539 | 18 | 248 | 0.0 | 4.8 | 0.00 | 0.00 | 0.00 | 45 | 1015.0 |
| 20260504081539 | 17 | 15 | 4.8 | 9.7 | 0.00 | 0.00 | 0.00 | 52 | 1016.9 |